DW7999 Weather Reports


time (UTC)temp
C
wind
direction
speed
KPH
gust
KPH
rain 1hr
cm
rain 24hr
cm
rain mn
cm
humidity
%
barometer
mb
20260506191558 12 5 8.0 20.9 0.00 2.16 0.46 55 1013.2
20260506191526 12 346 1.6 12.9 0.00 2.16 0.46 55 1011.5
20260506191100 12 35 8.0 20.9 0.00 2.16 0.46 53 1013.0
20260506191027 12 340 3.2 12.9 0.00 2.16 0.46 53 1011.4
20260506190602 13 333 4.8 20.9 0.00 2.16 0.46 54 1013.1
20260506190526 13 294 0.0 11.3 0.00 2.16 0.46 56 1011.3
20260506190026 13 304 0.0 6.4 0.00 2.36 0.46 55 1011.2
20260506185602 13 342 3.2 24.1 0.00 2.36 0.46 52 1012.8
20260506185526 13 334 0.0 6.4 0.00 2.36 0.46 52 1011.2
20260506185103 12 344 6.4 24.1 0.00 2.36 0.46 51 1012.7
20260506185025 12 337 1.6 6.4 0.00 2.36 0.46 52 1011.1
20260506184600 13 10 6.4 20.9 0.00 2.36 0.46 52 1012.7
20260506184530 13 337 0.0 6.4 0.00 2.36 0.46 54 1011.1
20260506184103 13 5 3.2 12.9 0.00 2.36 0.46 54 1012.7
20260506184025 13 346 0.0 8.0 0.00 2.36 0.46 54 1011.2
20260506183604 13 311 1.6 9.7 0.00 2.36 0.46 49 1012.9
20260506183525 13 290 0.0 4.8 0.00 2.36 0.46 51 1011.3
20260506183108 13 333 0.0 12.9 0.00 2.36 0.46 51 1012.8
20260506183025 13 302 0.0 3.2 0.00 2.36 0.46 51 1011.2
20260506182559 13 214 1.6 12.9 0.00 2.36 0.46 56 1012.8
20260506182524 13 309 0.0 3.2 0.00 2.36 0.46 56 1011.2
20260506182100 13 314 4.8 12.9 0.00 2.36 0.46 51 1012.9
20260506182024 13 316 0.0 3.2 0.00 2.36 0.46 51 1011.3
20260506181603 13 281 0.0 16.1 0.00 2.36 0.46 52 1012.7
20260506181536 13 302 0.0 6.4 0.00 2.36 0.46 52 1011.1
20260506181100 13 333 6.4 16.1 0.00 2.36 0.46 56 1012.6
20260506181022 13 342 0.0 3.2 0.00 2.36 0.46 59 1011.1
20260506180558 12 13 6.4 16.1 0.00 2.36 0.46 54 1012.7
20260506180521 12 346 0.0 3.2 0.00 2.36 0.46 54 1011.1
20260506180101 12 0 3.2 16.1 0.00 2.36 0.46 55 1012.8
20260506180021 12 286 0.0 4.8 0.00 2.41 0.46 58 1011.1
20260506175601 12 350 8.0 16.1 0.00 2.41 0.46 54 1012.7
20260506175524 12 347 0.0 4.8 0.00 2.41 0.46 54 1011.1
20260506175104 12 352 6.4 16.1 0.00 2.41 0.46 54 1012.7
20260506175020 12 336 0.0 4.8 0.00 2.41 0.46 55 1011.1
20260506174559 12 26 4.8 14.5 0.00 2.41 0.46 57 1012.8
20260506174520 12 340 0.0 4.8 0.00 2.41 0.46 57 1011.1
20260506174100 12 28 3.2 17.7 0.00 2.41 0.46 56 1012.9
20260506174023 12 334 0.0 6.4 0.00 2.41 0.46 57 1011.2
20260506173600 12 321 4.8 20.9 0.00 2.41 0.46 57 1012.9
20260506173523 12 326 0.0 6.4 0.00 2.41 0.46 57 1011.3
20260506173110 12 13 8.0 20.9 0.00 2.41 0.46 55 1013.0
20260506173050 12 332 0.0 6.4 0.00 2.41 0.46 55 1011.3
20260506172603 12 32 4.8 16.1 0.00 2.41 0.46 56 1013.0
20260506172518 12 360 0.0 4.8 0.00 2.41 0.46 54 1011.4
20260506172100 12 350 6.4 17.7 0.00 2.41 0.46 52 1013.1
20260506172018 12 344 0.0 4.8 0.00 2.41 0.46 57 1011.3
20260506171600 12 5 4.8 17.7 0.00 2.41 0.46 55 1013.3
20260506171520 12 334 0.0 6.4 0.00 2.41 0.46 55 1011.7
20260506171100 12 323 6.4 17.7 0.00 2.41 0.46 53 1013.2
20260506171019 12 338 0.0 4.8 0.00 2.41 0.46 54 1011.5
20260506170557 12 352 4.8 17.7 0.00 2.41 0.46 51 1013.2
20260506170516 12 342 0.0 4.8 0.00 2.41 0.46 52 1011.5
20260506170110 12 5 4.8 12.9 0.00 2.41 0.46 55 1013.1
20260506170016 12 337 0.0 4.8 0.00 2.41 0.46 56 1011.4
20260506165558 12 17 1.6 8.0 0.00 2.41 0.46 55 1013.1
20260506165517 12 281 0.0 8.0 0.00 2.41 0.46 51 1011.5
20260506165101 12 321 3.2 8.0 0.00 2.41 0.46 52 1013.1
20260506165017 12 310 0.0 8.0 0.00 2.41 0.46 50 1011.4
20260506164625 12 296 0.0 8.0 0.00 2.41 0.46 52 1013.2
20260506164516 12 309 1.6 11.3 0.00 2.41 0.46 51 1011.4
20260506164058 12 336 1.6 12.9 0.00 2.41 0.46 50 1013.3
20260506164016 12 317 1.6 11.3 0.00 2.41 0.46 50 1011.5
20260506163600 12 304 3.2 16.1 0.00 2.41 0.46 52 1013.3
20260506163513 12 313 0.0 4.8 0.00 2.41 0.46 53 1011.6
20260506163112 12 333 3.2 16.1 0.00 2.41 0.46 54 1013.2
20260506163016 12 324 0.0 4.8 0.00 2.41 0.46 54 1011.5
20260506162557 12 309 6.4 16.1 0.00 2.41 0.46 56 1013.3
20260506162512 12 348 0.0 4.8 0.00 2.41 0.46 56 1011.6
20260506162059 12 36 6.4 14.5 0.00 2.41 0.46 54 1013.2
20260506162013 12 331 0.0 4.8 0.00 2.41 0.46 56 1011.5
20260506161557 12 15 6.4 14.5 0.00 2.41 0.46 58 1013.3
20260506161511 12 343 0.0 4.8 0.00 2.41 0.46 56 1011.5
20260506161102 12 39 4.8 14.5 0.00 2.41 0.46 61 1013.3
20260506161013 12 331 0.0 4.8 0.00 2.41 0.46 59 1011.6
20260506160558 11 30 4.8 14.5 0.00 2.41 0.46 61 1013.3
20260506160508 11 339 0.0 3.2 0.00 2.41 0.46 62 1011.5
20260506160134 12 22 4.8 17.7 0.00 2.41 0.46 65 1013.1
20260506160008 12 355 0.0 3.2 0.00 2.41 0.46 64 1011.4
20260506155558 12 321 6.4 17.7 0.00 2.41 0.46 63 1013.0
20260506155507 12 336 0.0 3.2 0.00 2.41 0.46 65 1011.2
20260506155100 12 10 4.8 16.1 0.00 2.41 0.46 64 1013.0
20260506155006 12 355 0.0 3.2 0.00 2.41 0.46 63 1011.3
20260506154604 12 349 4.8 16.1 0.00 2.41 0.46 63 1013.0
20260506154506 12 337 0.0 3.2 0.00 2.41 0.46 65 1011.3
20260506154100 11 10 4.8 16.1 0.00 2.41 0.46 64 1013.0
20260506154005 11 342 0.0 3.2 0.00 2.41 0.46 65 1011.3
20260506153601 11 317 4.8 12.9 0.00 2.41 0.46 64 1012.9
20260506153504 11 323 0.0 3.2 0.00 2.41 0.46 65 1011.3
20260506153106 12 319 3.2 17.7 0.00 2.41 0.46 65 1013.0
20260506153003 11 338 0.0 6.4 0.00 2.41 0.46 68 1011.3
20260506152557 11 306 6.4 17.7 0.00 2.41 0.46 64 1013.0
20260506152504 11 303 0.0 6.4 0.00 2.41 0.46 66 1011.4
20260506152104 11 333 0.0 3.2 0.00 2.41 0.46 67 1011.4
20260506152101 11 32 4.8 14.5 0.00 2.41 0.46 66 1013.0
20260506151609 11 327 3.2 12.9 0.00 2.41 0.46 66 1012.8
20260506151601 11 351 0.0 3.2 0.00 2.41 0.46 66 1011.2
20260506151059 11 325 0.0 3.2 0.00 2.41 0.46 67 1011.1
20260506150558 11 300 3.2 12.9 0.00 2.41 0.46 66 1012.5
20260506150109 11 197 1.6 14.5 0.00 2.41 0.46 67 1012.3
20260506150056 11 342 0.0 6.4 0.00 2.41 0.46 67 1010.7
20260506145559 11 28 6.4 14.5 0.00 2.41 0.46 67 1012.4
20260506145556 11 340 0.0 6.4 0.00 2.41 0.46 68 1010.8
20260506145103 11 338 0.0 1.6 0.00 2.41 0.46 67 1010.8
20260506145059 11 318 3.2 11.3 0.00 2.41 0.46 67 1012.5
20260506144605 11 321 3.2 14.5 0.00 2.41 0.46 69 1012.4
20260506144558 11 327 0.0 3.2 0.00 2.41 0.46 69 1010.7
20260506144059 11 15 3.2 14.5 0.00 2.41 0.46 67 1012.3
20260506144054 11 338 0.0 6.4 0.00 2.41 0.46 68 1010.6
20260506143558 11 340 3.2 16.1 0.00 2.41 0.46 65 1012.2
20260506143553 11 360 0.0 6.4 0.00 2.41 0.46 65 1010.5
20260506143106 11 352 3.2 16.1 0.00 2.41 0.46 68 1012.3
20260506143050 11 9 0.0 4.8 0.00 2.41 0.46 69 1010.5
20260506142600 11 345 6.4 16.1 0.00 2.41 0.46 66 1012.3
20260506142548 11 349 0.0 4.8 0.00 2.41 0.46 66 1010.6
20260506142101 11 5 4.8 16.1 0.00 2.41 0.46 67 1012.2
20260506142048 11 334 0.0 3.2 0.00 2.41 0.46 68 1010.5
20260506141608 11 49 3.2 14.5 0.00 2.41 0.46 68 1012.1
20260506141547 11 15 0.0 4.8 0.00 2.41 0.46 69 1010.4
20260506141058 11 346 1.6 9.7 0.00 2.41 0.46 68 1012.2
20260506141048 11 301 0.0 4.8 0.00 2.41 0.46 71 1010.5
20260506140558 11 338 3.2 14.5 0.00 2.41 0.46 69 1012.2
20260506140555 11 332 0.0 3.2 0.00 2.41 0.46 70 1010.5
20260506140059 10 342 1.6 14.5 0.00 2.41 0.46 69 1012.2
20260506140043 10 306 0.0 4.8 0.00 2.41 0.46 70 1010.5
20260506135600 10 0 1.6 17.7 0.00 2.41 0.46 69 1012.1
20260506135541 10 299 0.0 4.8 0.00 2.41 0.46 70 1010.4
20260506135057 11 349 3.2 17.7 0.00 2.41 0.46 69 1012.2
20260506135048 11 291 0.0 4.8 0.00 2.41 0.46 70 1010.3
20260506134558 11 313 4.8 17.7 0.00 2.41 0.46 70 1012.0
20260506134539 11 302 0.0 4.8 0.00 2.41 0.46 70 1010.1
20260506134101 11 323 4.8 17.7 0.00 2.41 0.46 69 1011.7
20260506134040 11 329 0.0 4.8 0.00 2.41 0.46 70 1009.9
20260506133559 11 5 3.2 14.5 0.00 2.41 0.46 71 1011.8
20260506133538 11 322 0.0 3.2 0.00 2.41 0.46 71 1010.0
20260506133109 11 323 1.6 6.4 0.00 2.41 0.46 75 1011.7
20260506133047 11 324 0.0 6.4 0.00 2.41 0.46 75 1009.8
20260506132600 10 13 1.6 6.4 0.00 2.41 0.46 79 1011.6
20260506132535 10 288 0.0 6.4 0.00 2.41 0.46 79 1009.7
20260506132143 10 293 0.0 0.0 0.00 2.41 0.46 83 1009.7
20260506132100 10 0 0.0 4.8 0.00 2.41 0.46 83 1011.6
20260506131615 9 0 0.0 4.8 0.00 2.41 0.46 84 1011.5
20260506131534 9 293 0.0 3.2 0.00 2.41 0.46 84 1009.7
20260506131057 9 0 0.0 11.3 0.00 2.41 0.46 83 1011.6
20260506131034 9 293 0.0 4.8 0.00 2.41 0.46 84 1009.7
20260506130558 9 0 0.0 11.3 0.00 2.41 0.46 84 1011.6
20260506130533 9 293 0.0 4.8 0.00 2.41 0.46 84 1009.7
20260506130059 9 253 0.0 9.7 0.00 2.41 0.46 85 1011.5
20260506130029 9 293 0.0 3.2 0.00 2.41 0.46 85 1009.7
20260506125559 8 0 0.0 9.7 0.00 2.41 0.46 85 1011.4
20260506125528 8 293 0.0 3.2 0.00 2.41 0.46 86 1009.5
20260506125058 8 255 3.2 9.7 0.00 2.41 0.46 85 1011.4
20260506125028 8 292 1.6 4.8 0.00 2.41 0.46 86 1009.6
20260506124600 8 244 1.6 12.9 0.00 2.41 0.46 86 1011.3
20260506124527 8 290 1.6 4.8 0.00 2.41 0.46 87 1009.7
20260506124059 8 280 0.0 12.9 0.00 2.41 0.46 86 1011.2
20260506124026 8 294 0.0 1.6 0.00 2.41 0.46 87 1009.3
20260506123558 8 260 1.6 6.4 0.00 2.41 0.46 87 1011.1
20260506123526 8 293 0.0 1.6 0.00 2.41 0.46 87 1009.3
20260506123100 8 255 0.0 11.3 0.00 2.41 0.46 87 1010.9
20260506123025 8 292 0.0 4.8 0.00 2.41 0.46 88 1009.2
20260506122558 8 0 1.6 12.9 0.00 2.41 0.46 87 1010.8
20260506122524 8 292 0.0 4.8 0.00 2.41 0.46 88 1009.2
20260506122058 8 254 1.6 12.9 0.00 2.41 0.46 87 1010.9
20260506122026 7 290 0.0 4.8 0.00 2.41 0.46 88 1009.2
20260506121602 7 266 1.6 11.3 0.00 2.41 0.46 92 1010.8
20260506121522 7 275 0.0 3.2 0.00 2.41 0.46 88 1009.0
20260506121058 7 0 1.6 11.3 0.00 2.41 0.46 88 1010.7
20260506121021 7 265 0.0 1.6 0.00 2.41 0.46 88 1009.1
20260506120558 7 259 1.6 9.7 0.00 2.41 0.46 88 1010.7
20260506120521 7 305 0.0 4.8 0.00 2.41 0.46 89 1008.9
20260506120110 7 0 0.0 9.7 0.00 2.41 0.46 89 1010.4
20260506120020 7 306 0.0 3.2 0.00 2.41 0.46 89 1008.8
20260506115558 7 0 0.0 6.4 0.00 2.41 0.46 89 1010.6
20260506115519 7 305 0.0 3.2 0.00 2.41 0.46 90 1008.8
20260506115057 7 239 0.0 12.9 0.00 2.41 0.46 90 1010.6
20260506115019 7 315 0.0 0.0 0.00 2.41 0.46 91 1008.9
20260506114600 7 276 1.6 12.9 0.00 2.41 0.46 90 1010.6
20260506114521 7 315 0.0 0.0 0.00 2.41 0.46 91 1008.9
20260506114103 7 238 3.2 14.5 0.00 2.41 0.46 91 1010.8
20260506114017 7 315 0.0 0.0 0.00 2.41 0.46 92 1009.0
20260506113600 7 248 1.6 14.5 0.00 2.41 0.46 91 1010.7
20260506113518 7 315 0.0 0.0 0.00 2.41 0.46 91 1008.8
20260506113059 7 267 3.2 16.1 0.00 2.41 0.46 91 1010.8
20260506113015 7 315 0.0 0.0 0.00 2.41 0.46 91 1009.0
20260506112600 7 259 3.2 16.1 0.00 2.41 0.46 91 1010.7
20260506112515 7 315 0.0 0.0 0.00 2.41 0.46 91 1009.0
20260506112101 7 250 4.8 16.1 0.00 2.41 0.46 91 1010.6
20260506112016 7 315 0.0 0.0 0.00 2.41 0.46 92 1009.0
20260506111600 7 240 4.8 16.1 0.00 2.41 0.46 91 1010.5
20260506111514 7 315 0.0 0.0 0.00 2.41 0.46 92 1008.7
20260506111100 7 228 3.2 9.7 0.00 2.41 0.46 91 1010.6
20260506111014 7 315 0.0 0.0 0.00 2.41 0.46 92 1008.8
20260506110559 7 273 1.6 9.7 0.00 2.41 0.46 92 1010.2
20260506110514 7 315 0.0 0.0 0.00 2.41 0.46 92 1008.3
20260506110114 7 273 3.2 9.7 0.00 2.41 0.46 92 1010.1
20260506110010 7 318 0.0 0.0 0.00 2.41 0.46 92 1008.1
20260506105600 7 281 1.6 6.4 0.00 2.41 0.46 92 1009.7
20260506105510 7 318 0.0 0.0 0.00 2.41 0.46 92 1007.9
20260506105100 7 278 3.2 6.4 0.00 2.41 0.46 92 1009.7
20260506105009 7 320 0.0 0.0 0.00 2.41 0.46 92 1007.9
20260506104613 7 253 1.6 11.3 0.00 2.41 0.46 92 1009.5
20260506104525 7 320 0.0 0.0 0.00 2.41 0.46 92 1007.8
20260506104100 7 0 3.2 11.3 0.00 2.41 0.46 91 1009.7
20260506104009 7 320 0.0 0.0 0.00 2.41 0.46 92 1007.8
20260506103600 7 278 1.6 9.7 0.00 2.41 0.46 91 1009.5
20260506103508 7 320 0.0 0.0 0.00 2.41 0.46 92 1007.7
20260506103100 7 269 1.6 9.7 0.00 2.41 0.46 91 1009.3
20260506103008 7 320 0.0 0.0 0.00 2.41 0.46 92 1007.7
20260506102600 7 0 0.0 4.8 0.00 2.41 0.46 91 1009.5
20260506102507 7 320 0.0 0.0 0.00 2.41 0.46 92 1007.7
20260506102059 7 0 0.0 6.4 0.00 2.41 0.46 92 1009.6
20260506102008 7 321 0.0 0.0 0.00 2.41 0.46 92 1007.7
20260506101558 7 248 0.0 6.4 0.00 2.41 0.46 92 1009.5
20260506101509 7 321 0.0 0.0 0.00 2.41 0.46 92 1007.8
20260506101102 7 240 1.6 4.8 0.00 2.41 0.46 92 1009.6
20260506101006 7 321 0.0 0.0 0.00 2.41 0.46 92 1007.8
20260506100606 7 228 0.0 4.8 0.00 2.41 0.46 91 1009.3
20260506100506 7 321 0.0 0.0 0.00 2.41 0.46 92 1007.4
20260506100113 7 236 1.6 4.8 0.00 2.41 0.46 91 1009.4
20260506100005 7 321 0.0 0.0 0.00 2.41 0.46 92 1007.6
20260506095601 7 229 1.6 3.2 0.03 2.41 0.46 91 1009.1
20260506095505 7 321 0.0 0.0 0.03 2.41 0.46 92 1007.3
20260506095100 6 228 1.6 3.2 0.03 2.41 0.46 91 1009.0
20260506095006 6 321 0.0 0.0 0.03 2.41 0.46 92 1007.2
20260506094604 6 0 0.0 1.6 0.03 2.41 0.46 91 1008.9
20260506094506 6 321 0.0 0.0 0.03 2.41 0.46 92 1007.3
20260506094100 6 0 0.0 6.4 0.03 2.41 0.46 91 1009.1
20260506094005 6 321 0.0 0.0 0.03 2.41 0.46 92 1007.5
20260506093603 7 0 1.6 6.4 0.03 2.41 0.46 91 1009.3
20260506093504 7 321 0.0 0.0 0.03 2.41 0.46 92 1007.7
20260506093102 7 263 1.6 4.8 0.03 2.41 0.46 92 1009.7
20260506093004 7 321 0.0 0.0 0.03 2.41 0.46 92 1008.0
20260506092559 7 242 1.6 4.8 0.03 2.41 0.46 92 1009.6
20260506092504 7 321 0.0 0.0 0.03 2.41 0.46 92 1007.7
20260506092102 7 245 0.0 3.2 0.03 2.41 0.46 91 1009.5
20260506092003 7 321 0.0 0.0 0.03 2.41 0.46 92 1007.9
20260506091605 7 0 0.0 4.8 0.05 2.41 0.46 91 1009.5
20260506091503 7 321 0.0 0.0 0.05 2.41 0.46 92 1007.9
20260506091101 7 0 0.0 4.8 0.05 2.41 0.46 91 1009.7
20260506091004 7 321 0.0 0.0 0.05 2.41 0.46 92 1007.9
20260506090602 7 281 0.0 4.8 0.05 2.41 0.46 91 1009.6
20260506090504 7 321 0.0 0.0 0.05 2.41 0.46 92 1007.7
20260506090104 7 0 1.6 6.4 0.05 2.41 0.46 92 1009.5
20260506090002 7 321 0.0 0.0 0.08 2.41 0.46 92 1007.6
20260506085600 7 0 0.0 6.4 0.05 2.39 0.43 92 1009.7
20260506085503 7 321 0.0 0.0 0.05 2.39 0.43 92 1007.8
20260506085102 7 241 0.0 6.4 0.05 2.39 0.43 91 1009.5
20260506085001 7 321 0.0 0.0 0.05 2.39 0.43 92 1007.7
20260506084635 7 0 0.0 6.4 0.05 2.39 0.43 91 1009.8
20260506084600 7 321 0.0 0.0 0.05 2.39 0.43 92 1007.8
20260506084100 7 321 0.0 0.0 0.05 2.39 0.43 92 1008.0
20260506083600 7 250 1.6 4.8 0.08 2.39 0.43 91 1009.8
20260506083559 7 321 0.0 0.0 0.05 2.39 0.43 92 1008.1
20260506083100 7 236 1.6 4.8 0.08 2.39 0.43 91 1009.8
20260506083059 7 321 0.0 0.0 0.08 2.39 0.43 92 1008.0
20260506082602 7 0 0.0 3.2 0.08 2.39 0.43 91 1009.6
20260506082558 7 321 0.0 0.0 0.08 2.39 0.43 92 1007.8
20260506082059 7 266 0.0 4.8 0.10 2.39 0.43 91 1009.2
20260506081601 7 321 0.0 0.0 0.08 2.36 0.41 92 1007.3
20260506081509 7 321 0.0 0.0 0.08 2.36 0.41 92 1007.3
20260506081100 7 0 0.0 4.8 0.08 2.36 0.41 91 1009.3
20260506081056 7 321 0.0 0.0 0.08 2.36 0.41 92 1007.4
20260506080602 7 242 0.0 4.8 0.08 2.36 0.41 91 1009.5
20260506080556 7 321 0.0 0.0 0.08 2.36 0.41 92 1007.7
20260506080111 7 321 0.0 0.0 0.05 2.34 0.38 92 1007.6
20260506080105 7 263 0.0 1.6 0.08 2.36 0.41 91 1009.4
20260506073057 7 0 0.0 3.2 0.05 2.31 0.36 91 1009.6
20260506073054 7 321 0.0 0.0 0.05 2.31 0.36 91 1007.8
20260506072559 7 0 0.0 3.2 0.08 2.31 0.36 91 1009.8
20260506072556 7 321 0.0 0.0 0.08 2.31 0.36 91 1007.9
20260506072059 7 0 0.0 3.2 0.05 2.29 0.33 90 1009.8
20260506072054 7 321 0.0 0.0 0.05 2.29 0.33 91 1008.0
20260506071615 7 321 0.0 0.0 0.05 2.29 0.33 91 1007.9
20260506071559 7 0 0.0 3.2 0.05 2.29 0.33 90 1009.7
20260506071059 7 0 0.0 4.8 0.05 2.29 0.33 90 1009.6
20260506071053 7 321 0.0 0.0 0.05 2.29 0.33 91 1007.7
20260506070559 7 0 0.0 4.8 0.05 2.29 0.33 90 1009.4
20260506070553 7 321 0.0 0.0 0.05 2.29 0.33 91 1007.6
20260506062059 7 0 0.0 6.4 0.10 2.24 0.28 88 1009.5
20260506062049 7 321 0.0 0.0 0.10 2.24 0.28 88 1007.7
20260506061558 7 0 0.0 16.1 0.10 2.24 0.28 87 1009.5
20260506061546 7 321 0.0 0.0 0.10 2.24 0.28 88 1007.7
20260506061059 8 0 1.6 16.1 0.13 2.24 0.28 87 1009.5
20260506061046 8 321 0.0 0.0 0.13 2.24 0.28 87 1007.6
20260506060559 8 352 4.8 16.1 0.13 2.24 0.28 88 1009.4
20260506060545 8 321 0.0 0.0 0.13 2.24 0.28 88 1007.5
20260506051058 9 0 0.0 3.2 0.08 2.11 0.15 93 1009.5
20260506051033 8 302 0.0 0.0 0.15 2.11 0.15 94 1007.6
20260506050559 8 0 0.0 6.4 0.08 2.11 0.15 93 1009.6
20260506050533 8 302 0.0 0.0 0.15 2.11 0.15 94 1007.7
20260506050104 8 0 0.0 6.4 0.05 2.08 0.13 93 1009.6
20260506045059 8 249 0.0 3.2 0.03 2.06 0.10 93 1009.5
20260506045028 8 302 0.0 0.0 0.10 2.06 0.10 94 1007.7
20260506044559 8 259 0.0 3.2 0.00 2.03 0.08 93 1009.7
20260506044533 8 302 0.0 0.0 0.08 2.03 0.08 94 1007.7
20260506044032 8 302 0.0 0.0 0.08 2.03 0.08 94 1007.6
20260506043528 8 302 0.0 0.0 0.08 2.01 0.05 94 1007.7
20260506043028 9 302 0.0 0.0 0.05 1.98 0.03 94 1007.7
20260506042530 9 302 0.0 0.0 0.05 1.98 0.03 94 1007.6
20260506042102 9 240 0.0 4.8 0.08 1.98 0.03 93 1009.7
20260506042047 9 0 0.0 4.8 0.10 1.98 0.03 93 1009.7
20260506042026 9 302 0.0 0.0 0.08 1.98 0.03 94 1007.6
20260506041525 9 302 0.0 0.0 0.10 1.98 0.03 94 1007.5
20260506041025 9 302 0.0 0.0 0.10 1.96 0.00 94 1007.5
20260506040524 9 302 0.0 0.0 0.13 1.96 0.00 94 1007.5
20260506040039 9 302 0.0 0.0 0.15 1.96 1.96 94 1007.6
20260506035524 9 302 0.0 0.0 0.15 1.96 1.96 94 1007.5
20260506035024 9 302 0.0 0.0 0.15 1.96 1.96 94 1007.6
20260506034524 9 302 0.0 0.0 0.18 1.96 1.96 94 1007.6
20260506034024 9 302 0.0 0.0 0.18 1.96 1.96 94 1007.5
20260506033522 9 302 0.0 0.0 0.18 1.93 1.93 94 1007.7
20260506033027 9 302 0.0 0.0 0.18 1.93 1.93 94 1007.7
20260506032604 9 250 0.0 6.4 0.20 1.93 1.93 93 1009.8
20260506032522 9 302 0.0 0.0 0.20 1.93 1.93 93 1007.7
20260506032100 9 241 1.6 6.4 0.20 1.91 1.91 93 1010.0
20260506032024 9 302 0.0 0.0 0.20 1.91 1.91 94 1008.0
20260506031603 9 231 0.0 9.7 0.20 1.88 1.88 93 1010.0
20260506031523 9 302 0.0 0.0 0.20 1.88 1.88 93 1008.0
20260506031100 9 207 1.6 9.7 0.18 1.85 1.85 93 1010.0
20260506031024 9 302 0.0 0.0 0.18 1.85 1.85 93 1008.1
20260506030602 9 172 3.2 8.0 0.18 1.83 1.83 93 1010.2
20260506030521 9 302 0.0 0.0 0.18 1.83 1.83 93 1008.3
20260506030032 9 302 0.0 0.0 0.18 1.80 1.80 93 1008.2
20260506025600 9 230 4.8 12.9 0.18 1.80 1.80 93 1010.1
20260506025519 9 302 0.0 0.0 0.18 1.80 1.80 94 1008.2
20260506025105 9 218 3.2 12.9 0.20 1.80 1.80 93 1010.1
20260506025018 9 302 0.0 0.0 0.20 1.80 1.80 93 1008.1
20260506024606 9 234 3.2 11.3 0.20 1.78 1.78 93 1010.0
20260506024527 9 302 0.0 0.0 0.20 1.78 1.78 93 1008.0
20260506024101 9 232 3.2 6.4 0.25 1.78 1.78 93 1010.0
20260506024017 9 302 0.0 0.0 0.25 1.78 1.78 93 1007.8
20260506023603 9 232 1.6 9.7 0.28 1.78 1.78 93 1009.9
20260506023520 9 302 0.0 0.0 0.25 1.75 1.75 93 1007.8
20260506023110 9 238 1.6 9.7 0.25 1.75 1.75 93 1009.9
20260506023016 9 302 0.0 0.0 0.25 1.75 1.75 93 1007.9
20260506022600 9 232 1.6 8.0 0.25 1.73 1.73 93 1010.1
20260506022515 9 302 0.0 0.0 0.25 1.73 1.73 93 1007.9
20260506022100 9 277 1.6 8.0 0.25 1.70 1.70 93 1010.0
20260506022016 9 302 0.0 0.0 0.25 1.70 1.70 93 1007.9
20260506021622 9 231 1.6 6.4 0.23 1.68 1.68 93 1010.0
20260506021530 9 302 0.0 0.0 0.23 1.68 1.68 93 1007.9
20260506021126 9 302 0.0 0.0 0.23 1.68 1.68 93 1007.9
20260506021101 9 240 0.0 6.4 0.23 1.68 1.68 93 1010.1
20260506020601 9 240 1.6 6.4 0.23 1.65 1.65 93 1009.9
20260506020526 9 302 0.0 0.0 0.23 1.65 1.65 93 1007.8
20260506020214 9 240 1.6 4.8 0.20 1.63 1.63 93 1009.9
20260506020012 9 302 0.0 0.0 0.23 1.63 1.63 93 1007.8
20260506015600 9 234 1.6 4.8 0.23 1.63 1.63 93 1009.9
20260506015511 9 302 0.0 0.0 0.20 1.60 1.60 93 1007.5
20260506015100 9 205 1.6 6.4 0.20 1.60 1.60 93 1009.7
20260506015015 9 302 0.0 0.0 0.18 1.57 1.57 93 1007.5
20260506014559 9 242 1.6 9.7 0.20 1.57 1.57 93 1009.8
20260506014521 9 302 0.0 0.0 0.18 1.55 1.55 93 1007.6
20260506014102 9 231 3.2 11.3 0.15 1.52 1.52 93 1009.6
20260506014010 9 302 0.0 0.0 0.15 1.52 1.52 93 1007.5
20260506013558 9 247 1.6 11.3 0.15 1.47 1.47 93 1009.7
20260506013510 9 302 0.0 0.0 0.15 1.50 1.50 93 1007.5
20260506013109 9 234 3.2 11.3 0.18 1.47 1.47 93 1009.6
20260506013010 9 302 0.0 0.0 0.15 1.45 1.45 93 1007.5
20260506012558 9 227 3.2 8.0 0.18 1.47 1.47 93 1009.5
20260506012509 9 302 0.0 0.0 0.18 1.45 1.45 93 1007.2
20260506012101 9 250 3.2 8.0 0.18 1.45 1.45 93 1009.3
20260506012009 9 302 0.0 0.0 0.18 1.42 1.42 93 1007.2
20260506011617 9 244 1.6 6.4 0.20 1.45 1.45 92 1009.3
20260506011518 9 302 0.0 0.0 0.20 1.42 1.42 93 1007.1
20260506011103 9 235 1.6 4.8 0.20 1.45 1.45 92 1009.3
20260506011008 9 302 0.0 0.0 0.23 1.42 1.42 93 1007.1
20260506010601 9 233 0.0 4.8 0.20 1.42 1.42 92 1009.1
20260506010507 9 302 0.0 0.0 0.20 1.42 1.42 93 1006.9
20260506010100 9 225 0.0 4.8 0.20 1.40 1.40 92 1009.2
20260506010012 9 302 0.0 0.0 0.20 1.40 1.40 93 1007.0
20260506005605 9 0 1.6 6.4 0.23 1.40 1.40 92 1009.2
20260506005508 9 302 0.0 0.0 0.23 1.40 1.40 93 1007.0
20260506005100 9 234 1.6 11.3 0.25 1.40 1.40 92 1009.4
20260506005010 9 302 0.0 0.0 0.25 1.40 1.40 93 1007.2
20260506004601 9 232 3.2 11.3 0.25 1.37 1.37 92 1009.3
20260506004508 9 302 0.0 0.0 0.25 1.37 1.37 93 1007.1
20260506004100 9 234 4.8 12.9 0.25 1.37 1.37 92 1009.4
20260506004007 9 302 0.0 0.0 0.23 1.35 1.35 93 1007.1
20260506003600 9 250 4.8 12.9 0.23 1.32 1.32 92 1009.4
20260506003507 9 303 0.0 0.0 0.23 1.35 1.35 92 1007.1
20260506003059 9 227 0.0 3.2 0.23 1.32 1.32 92 1009.4
20260506003006 9 303 0.0 0.0 0.23 1.32 1.32 92 1007.1
20260506002558 9 229 1.6 4.8 0.20 1.30 1.30 92 1009.4
20260506002505 9 303 0.0 0.0 0.20 1.30 1.30 92 1007.2
20260506002449 9 229 0.0 8.0 0.18 1.27 1.27 92 1009.4
20260506002005 9 303 0.0 0.0 0.18 1.27 1.27 92 1007.1
20260506001504 9 303 0.0 0.0 0.18 1.24 1.24 92 1007.1
20260506001004 9 303 0.0 0.0 0.15 1.22 1.22 92 1006.9
20260506000504 9 303 0.0 0.0 0.15 1.22 1.22 92 1007.0
20260506000002 9 303 0.0 0.0 0.13 1.19 1.19 92 1006.8
20260505235502 9 303 0.0 0.0 0.10 1.17 1.17 92 1006.9
20260505235004 10 303 0.0 0.0 0.08 1.14 1.14 92 1006.7
20260505234505 9 303 0.0 0.0 0.05 1.12 1.12 92 1006.7
20260505234002 9 303 0.0 0.0 0.05 1.12 1.12 92 1006.7
20260505233501 10 303 0.0 0.0 0.03 1.09 1.09 92 1006.7
20260505233100 10 303 0.0 0.0 0.05 1.09 1.09 92 1006.6
20260505232600 10 303 0.0 0.0 0.08 1.09 1.09 92 1006.7
20260505232100 10 303 0.0 0.0 0.10 1.09 1.09 92 1006.7
20260505231559 10 303 0.0 0.0 0.08 1.07 1.07 92 1006.7
20260505231059 10 303 0.0 0.0 0.10 1.07 1.07 92 1006.7
20260505230559 10 303 0.0 0.0 0.15 1.07 1.07 91 1006.7
20260505230057 10 303 0.0 0.0 0.18 1.07 1.07 91 1006.6
20260505225558 10 303 0.0 0.0 0.23 1.07 1.07 91 1006.5
20260505225100 10 0 0.0 3.2 0.28 1.07 1.07 90 1008.9
20260505225055 10 303 0.0 0.0 0.28 1.07 1.07 91 1006.6
20260505224603 10 277 0.0 3.2 0.28 1.07 1.07 90 1009.1
20260505224555 10 303 0.0 0.0 0.28 1.07 1.07 91 1006.7
20260505224101 10 0 0.0 3.2 0.30 1.07 1.07 90 1009.1
20260505224055 10 303 0.0 0.0 0.30 1.07 1.07 91 1006.8
20260505223604 10 0 0.0 4.8 0.33 1.07 1.07 91 1009.2
20260505223554 10 303 0.0 0.0 0.33 1.07 1.07 91 1006.9
20260505223106 10 303 0.0 0.0 0.33 1.04 1.04 91 1006.9
20260505223100 10 0 0.0 4.8 0.33 1.04 1.04 91 1009.3
20260505222600 10 0 0.0 4.8 0.33 1.02 1.02 91 1009.3
20260505222552 10 303 0.0 0.0 0.33 1.02 1.02 91 1006.9
20260505222058 10 0 0.0 6.4 0.33 0.99 0.99 90 1009.1
20260505222052 10 303 0.0 0.0 0.33 0.99 0.99 91 1006.9
20260505221604 10 0 0.0 6.4 0.36 0.99 0.99 91 1009.0
20260505221552 10 303 0.0 0.0 0.36 0.99 0.99 91 1006.7
20260505221100 10 261 1.6 6.4 0.33 0.94 0.94 90 1008.9
20260505221050 10 303 0.0 0.0 0.33 0.94 0.94 91 1006.6
20260505220600 10 254 0.0 4.8 0.30 0.91 0.91 90 1008.9
20260505220550 10 303 0.0 0.0 0.30 0.91 0.91 91 1006.7
20260505220050 10 303 0.0 0.0 0.30 0.89 0.89 91 1006.5
20260505215600 10 340 0.0 4.8 0.25 0.81 0.81 90 1009.0
20260505215549 10 303 0.0 0.0 0.25 0.81 0.81 91 1006.6
20260505215100 10 0 0.0 4.8 0.25 0.79 0.79 90 1008.8
20260505215049 10 303 0.0 0.0 0.25 0.79 0.79 91 1006.4
20260505214600 10 0 0.0 4.8 0.28 0.79 0.79 90 1008.8
20260505214556 10 303 0.0 3.2 0.28 0.79 0.79 90 1006.5
20260505214100 10 0 0.0 8.0 0.25 0.76 0.76 90 1008.8
20260505214051 10 303 0.0 3.2 0.25 0.76 0.76 90 1006.5
20260505213600 10 0 0.0 8.0 0.25 0.74 0.74 90 1009.0
20260505213547 10 303 0.0 3.2 0.25 0.71 0.71 90 1006.6
20260505213100 10 329 1.6 6.4 0.25 0.71 0.71 90 1009.0
20260505213046 10 303 0.0 4.8 0.25 0.71 0.71 90 1006.7
20260505212558 10 0 0.0 6.4 0.25 0.69 0.69 90 1009.0
20260505212545 10 304 0.0 4.8 0.23 0.69 0.69 90 1006.7
20260505212058 10 0 1.6 14.5 0.23 0.66 0.66 90 1008.8
20260505212045 10 306 0.0 6.4 0.23 0.66 0.66 90 1006.4
20260505211559 11 352 1.6 14.5 0.20 0.64 0.64 90 1008.7
20260505211550 11 295 0.0 4.8 0.20 0.64 0.64 90 1006.2
20260505211101 11 260 1.6 6.4 0.20 0.61 0.61 90 1008.4
20260505211044 11 309 0.0 0.0 0.18 0.61 0.61 90 1006.1
20260505210600 11 334 0.0 6.4 0.20 0.61 0.61 90 1008.5
20260505210543 11 309 0.0 0.0 0.18 0.58 0.58 90 1006.1
20260505210043 11 309 0.0 0.0 0.18 0.58 0.58 90 1006.2
20260505205604 11 311 0.0 12.9 0.15 0.56 0.56 89 1008.6
20260505205541 11 309 0.0 0.0 0.15 0.56 0.56 90 1006.3
20260505205101 11 0 3.2 12.9 0.15 0.53 0.53 89 1008.5
20260505205041 11 306 0.0 0.0 0.15 0.53 0.53 89 1006.3
20260505204558 11 329 0.0 6.4 0.13 0.51 0.51 89 1008.7
20260505204540 11 301 0.0 1.6 0.13 0.51 0.51 89 1006.3
20260505204100 11 323 0.0 4.8 0.15 0.51 0.51 89 1008.5
20260505204040 11 292 0.0 0.0 0.15 0.51 0.51 89 1006.2
20260505203601 11 0 0.0 6.4 0.13 0.48 0.48 89 1008.5
20260505203539 11 291 0.0 0.0 0.13 0.48 0.48 89 1006.2
20260505203121 11 270 0.0 6.4 0.13 0.46 0.46 88 1008.7
20260505203050 11 291 0.0 0.0 0.13 0.46 0.46 89 1006.4
20260505202604 11 250 0.0 4.8 0.13 0.43 0.43 88 1008.9
20260505202539 11 291 0.0 1.6 0.13 0.43 0.43 89 1006.5
20260505202101 11 246 0.0 6.4 0.15 0.43 0.43 89 1008.8
20260505202039 11 291 0.0 1.6 0.15 0.43 0.43 89 1006.5
20260505201604 11 0 0.0 6.4 0.15 0.43 0.43 89 1008.8
20260505201538 11 290 0.0 0.0 0.15 0.43 0.43 89 1006.4
20260505201101 11 251 1.6 9.7 0.13 0.41 0.41 89 1009.0
20260505201038 11 290 0.0 0.0 0.13 0.41 0.41 89 1006.6
20260505200558 11 0 1.6 16.1 0.15 0.41 0.41 89 1009.1
20260505200538 11 290 0.0 0.0 0.15 0.41 0.41 89 1006.6
20260505200100 11 279 3.2 16.1 0.15 0.41 0.41 89 1009.2
20260505200038 11 290 0.0 3.2 0.15 0.41 0.41 89 1006.7
20260505195602 11 288 3.2 14.5 0.18 0.41 0.41 89 1009.2
20260505195539 11 296 0.0 3.2 0.18 0.41 0.41 90 1006.7
20260505195101 11 0 1.6 12.9 0.15 0.38 0.38 89 1009.2
20260505195036 11 294 0.0 0.0 0.18 0.38 0.38 90 1006.8
20260505194600 11 267 3.2 14.5 0.18 0.38 0.38 89 1009.1
20260505194541 11 294 0.0 0.0 0.20 0.38 0.38 89 1006.7
20260505194103 11 247 4.8 16.1 0.20 0.36 0.36 88 1008.9
20260505194044 11 294 0.0 3.2 0.20 0.36 0.36 89 1006.5
20260505193604 11 242 3.2 16.1 0.23 0.36 0.36 88 1009.3
20260505193534 11 295 0.0 3.2 0.23 0.36 0.36 89 1006.8
20260505193101 11 215 3.2 16.1 0.20 0.33 0.33 88 1009.3
20260505193033 11 288 0.0 6.4 0.20 0.33 0.33 89 1006.9
20260505192602 11 246 4.8 16.1 0.20 0.30 0.30 88 1009.2
20260505192535 11 295 0.0 4.8 0.20 0.30 0.30 89 1006.6
20260505192057 12 242 4.8 17.7 0.18 0.28 0.28 88 1009.1
20260505192031 12 294 0.0 3.2 0.18 0.28 0.28 89 1006.6